Iwanui, Waitara Historical Data
Daily Summary for November 9, 2018 Units:  Metric    English   Both
« Previous Day
Next Day »
Daily Weekly Monthly Yearly Custom
  High: Low: Average:
Temperature: 18.1 °C 10 °C 15.4 °C
Dew Point: 15.8 °C 8.8 °C 14.1 °C
Humidity: 96% 82% 92%
Wind Speed: 25.6km/h 0km/h 10.1km/h
Wind Gust: 35.6km/h - -
Wind- - West
Pressure: 1015.1 hPa 1010 hPa -
Precipitation: 11.68 mm    
Historical Graphs
 
 
Tabular Data for November 9, 2018
Time Temperature Dew Point Pressure Wind Wind Speed Wind Gust Humidity Rainfall Rate (Hourly)
00:04 16.8 °C 15.8 °C 1015.1 hPa North 11.1 km/h 19.5 km/h 94% 0 mm
00:09 16 °C 15.1 °C 1015.1 hPa NNW 11.1 km/h 19.5 km/h 94% 0 mm
00:14 16 °C 15.1 °C 1015.1 hPa NNW 8.7 km/h 18.3 km/h 94% 0 mm
00:19 16 °C 15.1 °C 1015.1 hPa North 7.2 km/h 18.3 km/h 94% 0 mm
00:24 16 °C 15.1 °C 1015.1 hPa North 5 km/h 17.2 km/h 94% 0 mm
00:29 16 °C 15.1 °C 1015.1 hPa North 14.8 km/h 18.3 km/h 94% 0 mm
00:34 15.9 °C 15.1 °C 1015.1 hPa North 8.7 km/h 18.3 km/h 95% 0 mm
00:40 16 °C 15.1 °C 1015.1 hPa NNW 6.1 km/h 18.3 km/h 94% 0 mm
00:44 16 °C 15.1 °C 1015.1 hPa NNW 12.2 km/h 20.9 km/h 94% 0 mm
00:49 16 °C 15.1 °C 1015.1 hPa NNW 13.4 km/h 20.9 km/h 94% 0 mm
00:54 16 °C 15.1 °C 1015.1 hPa North 8.7 km/h 18.3 km/h 94% 0 mm
00:59 16 °C 15.1 °C 1015.1 hPa NNW 8.7 km/h 18.3 km/h 94% 0 mm
01:04 15.9 °C 15.1 °C 1015.1 hPa NNW 7.2 km/h 19.5 km/h 95% 0 mm
01:09 15.9 °C 15.1 °C 1015.1 hPa NNW 12.2 km/h 19.5 km/h 95% 0 mm
01:15 16 °C 15.1 °C 1015.1 hPa NNW 7.2 km/h 19.5 km/h 94% 0 mm
01:19 16 °C 15.1 °C 1014.8 hPa North 12.2 km/h 23.3 km/h 94% 0 mm
01:25 16 °C 15.1 °C 1014.8 hPa North 7.2 km/h 23.3 km/h 94% 0 mm
01:29 16 °C 15.1 °C 1014.8 hPa NNW 8.7 km/h 21.9 km/h 94% 0 mm
01:34 16 °C 15.1 °C 1014.8 hPa North 11.1 km/h 21.9 km/h 94% 0 mm
01:39 16 °C 15.1 °C 1014.8 hPa NNW 7.2 km/h 20.9 km/h 94% 0 mm
01:44 16 °C 15.1 °C 1014.8 hPa NNW 8.7 km/h 24.5 km/h 94% 0 mm
01:50 16 °C 15.1 °C 1014.4 hPa NNW 11.1 km/h 24.5 km/h 94% 0 mm
01:54 16 °C 15.1 °C 1014.8 hPa NNW 9.7 km/h 19.5 km/h 94% 0 mm
01:59 16 °C 15.1 °C 1014.4 hPa NNW 13.4 km/h 20.9 km/h 94% 0 mm
02:04 16 °C 15.1 °C 1014.4 hPa NNW 8.7 km/h 20.9 km/h 94% 0 mm
02:09 16 °C 15.1 °C 1014.4 hPa NNW 9.7 km/h 19.5 km/h 94% 0 mm
02:15 16 °C 15.1 °C 1014.4 hPa NNW 8.7 km/h 19.5 km/h 94% 0 mm
02:19 16 °C 15.1 °C 1014.4 hPa North 9.7 km/h 20.9 km/h 94% 0 mm
02:25 16 °C 15.1 °C 1014.4 hPa NNW 9.7 km/h 20.9 km/h 94% 0 mm
02:30 16 °C 15.1 °C 1014.4 hPa NNW 14.8 km/h 21.9 km/h 94% 0 mm
02:34 15.9 °C 15.1 °C 1014.4 hPa North 9.7 km/h 21.9 km/h 95% 0 mm
02:39 15.9 °C 15.1 °C 1014.4 hPa NNW 11.1 km/h 21.9 km/h 95% 0 mm
02:45 15.9 °C 15.1 °C 1014.4 hPa NW 13.4 km/h 19.5 km/h 95% 0 mm
02:50 15.9 °C 15.1 °C 1014.4 hPa NNW 9.7 km/h 19.5 km/h 95% 0 mm
02:54 15.9 °C 15.1 °C 1014.4 hPa North 6.1 km/h 19.5 km/h 95% 0 mm
02:59 15.9 °C 15.1 °C 1014.4 hPa NNW 12.2 km/h 17.2 km/h 95% 0 mm
03:04 15.9 °C 15.1 °C 1014.4 hPa NW 9.7 km/h 17.2 km/h 95% 0 mm
03:10 15.9 °C 15.1 °C 1014.4 hPa NW 7.2 km/h 17.2 km/h 95% 0 mm
03:15 15.9 °C 15.1 °C 1014.4 hPa NW 11.1 km/h 15.8 km/h 95% 0 mm
03:19 15.9 °C 15.1 °C 1014.4 hPa NNW 12.2 km/h 19.5 km/h 95% 0 mm
03:25 15.9 °C 15.1 °C 1014.4 hPa NNW 8.7 km/h 19.5 km/h 95% 0 mm
03:29 15.9 °C 15.1 °C 1014.4 hPa North 9.7 km/h 15.8 km/h 95% 0 mm
03:34 15.9 °C 15.1 °C 1014.1 hPa NNW 6.1 km/h 17.2 km/h 95% 0 mm
03:39 15.8 °C 15 °C 1014.1 hPa NNW 7.2 km/h 18.3 km/h 95% 0 mm
03:44 15.8 °C 15 °C 1014.1 hPa NNW 7.2 km/h 18.3 km/h 95% 0 mm
03:49 15.8 °C 15 °C 1014.1 hPa NNW 12.2 km/h 18.3 km/h 95% 0 mm
03:54 15.8 °C 15 °C 1014.1 hPa NNW 9.7 km/h 19.5 km/h 95% 0 mm
03:59 15.8 °C 15 °C 1013.8 hPa NNW 6.1 km/h 19.5 km/h 95% 0 mm
04:04 15.8 °C 15 °C 1013.8 hPa NNE 7.2 km/h 15.8 km/h 95% 0 mm
04:10 15.8 °C 15 °C 1013.8 hPa North 7.2 km/h 15.8 km/h 95% 0 mm
04:14 15.8 °C 15 °C 1013.8 hPa NNW 11.1 km/h 19.5 km/h 95% 0 mm
04:19 15.8 °C 15 °C 1013.8 hPa NNW 9.7 km/h 19.5 km/h 95% 0 mm
04:24 15.8 °C 15 °C 1013.8 hPa North 6.1 km/h 17.2 km/h 95% 0 mm
04:29 15.8 °C 15 °C 1013.8 hPa North 6.1 km/h 23.3 km/h 95% 0 mm
04:34 15.8 °C 15 °C 1013.8 hPa North 7.2 km/h 23.3 km/h 95% 0 mm
04:40 15.7 °C 14.9 °C 1013.8 hPa NNW 7.2 km/h 19.5 km/h 95% 0.25 mm
04:44 15.8 °C 15 °C 1013.4 hPa NNW 8.7 km/h 20.9 km/h 95% 0.25 mm
04:49 15.7 °C 14.9 °C 1013.8 hPa NNW 9.7 km/h 20.9 km/h 95% 0.51 mm
04:54 15.7 °C 14.9 °C 1013.4 hPa NNW 9.7 km/h 18.3 km/h 95% 0.51 mm
04:59 15.8 °C 15 °C 1013.4 hPa NNW 9.7 km/h 19.5 km/h 95% 0.51 mm
05:04 15.7 °C 14.9 °C 1013.4 hPa NNW 15.8 km/h 21.9 km/h 95% 1.02 mm
05:09 15.7 °C 14.9 °C 1013.4 hPa NNW 6.1 km/h 21.9 km/h 95% 1.02 mm
05:15 15.7 °C 14.9 °C 1013.4 hPa North 8.7 km/h 21.9 km/h 95% 1.02 mm
05:19 15.7 °C 14.9 °C 1013.4 hPa NNW 7.2 km/h 18.3 km/h 95% 1.02 mm
05:25 15.7 °C 14.9 °C 1013.4 hPa NNW 11.1 km/h 20.9 km/h 95% 1.02 mm
05:29 15.7 °C 14.9 °C 1013.4 hPa NNW 9.7 km/h 21.9 km/h 95% 1.02 mm
05:34 15.7 °C 14.9 °C 1013.4 hPa NW 8.7 km/h 21.9 km/h 95% 1.02 mm
05:39 15.7 °C 14.9 °C 1013.4 hPa NW 9.7 km/h 19.5 km/h 95% 0.51 mm
05:45 15.7 °C 14.9 °C 1013.4 hPa NNW 9.7 km/h 18.3 km/h 95% 0.25 mm
05:50 15.7 °C 14.9 °C 1013.4 hPa NNW 11.1 km/h 23.3 km/h 95% 0.25 mm
05:55 15.7 °C 14.9 °C 1013.4 hPa NNW 13.4 km/h 23.3 km/h 95% 0.25 mm
06:00 15.7 °C 14.9 °C 1013.8 hPa NNW 9.7 km/h 21.9 km/h 95% 0.25 mm
06:05 15.7 °C 14.9 °C 1013.8 hPa North 11.1 km/h 24.5 km/h 95% 0 mm
06:09 15.7 °C 14.9 °C 1013.8 hPa North 13.4 km/h 24.5 km/h 95% 0 mm
06:14 15.7 °C 14.9 °C 1013.8 hPa North 13.4 km/h 20.9 km/h 95% 0 mm
06:19 15.7 °C 14.9 °C 1013.8 hPa North 13.4 km/h 20.9 km/h 95% 0 mm
06:24 15.7 °C 14.9 °C 1013.8 hPa North 6.1 km/h 23.3 km/h 95% 0 mm
06:29 15.7 °C 14.9 °C 1013.8 hPa North 11.1 km/h 23.3 km/h 95% 0 mm
06:34 15.7 °C 14.9 °C 1013.8 hPa NNW 11.1 km/h 24.5 km/h 95% 0 mm
06:39 15.7 °C 14.9 °C 1013.8 hPa NNW 11.1 km/h 24.5 km/h 95% 0 mm
06:45 15.7 °C 14.9 °C 1013.8 hPa NNW 12.2 km/h 18.3 km/h 95% 0 mm
06:49 15.7 °C 14.9 °C 1014.1 hPa North 6.1 km/h 19.5 km/h 95% 0 mm
06:54 15.7 °C 14.9 °C 1014.1 hPa NNW 12.2 km/h 20.9 km/h 95% 0 mm
06:59 15.8 °C 15 °C 1014.1 hPa NNW 9.7 km/h 20.9 km/h 95% 0 mm
07:05 15.8 °C 15 °C 1014.1 hPa North 9.7 km/h 20.9 km/h 95% 0 mm
07:09 15.8 °C 15 °C 1014.1 hPa North 9.7 km/h 19.5 km/h 95% 0 mm
07:15 15.8 °C 15 °C 1014.1 hPa NNW 13.4 km/h 20.9 km/h 95% 0 mm
07:19 15.8 °C 15 °C 1014.1 hPa North 11.1 km/h 21.9 km/h 95% 0 mm
07:25 15.8 °C 15 °C 1014.1 hPa North 7.2 km/h 21.9 km/h 95% 0 mm
07:29 15.8 °C 15 °C 1014.1 hPa NNW 9.7 km/h 19.5 km/h 95% 0 mm
07:34 15.8 °C 15 °C 1014.1 hPa North 5 km/h 21.9 km/h 95% 0 mm
07:39 15.9 °C 15.1 °C 1014.1 hPa North 9.7 km/h 21.9 km/h 95% 0 mm
07:44 15.9 °C 15.1 °C 1013.8 hPa NNW 12.2 km/h 19.5 km/h 95% 0 mm
07:50 15.9 °C 15.1 °C 1014.1 hPa North 11.1 km/h 19.5 km/h 95% 0 mm
07:54 15.9 °C 15.1 °C 1014.1 hPa NNW 8.7 km/h 19.5 km/h 95% 0 mm
07:59 15.9 °C 15.1 °C 1014.1 hPa NNW 14.8 km/h 21.9 km/h 95% 0 mm
08:04 15.9 °C 15.1 °C 1014.1 hPa NNW 12.2 km/h 21.9 km/h 95% 0 mm
08:09 16 °C 15.1 °C 1013.8 hPa North 9.7 km/h 21.9 km/h 94% 0 mm
08:14 16 °C 15.1 °C 1013.8 hPa North 5 km/h 21.9 km/h 94% 0 mm
08:19 16 °C 14.9 °C 1013.8 hPa North 17.2 km/h 23.3 km/h 93% 0 mm
08:24 16 °C 14.9 °C 1014.1 hPa North 14.8 km/h 24.5 km/h 93% 0 mm
08:29 16 °C 14.9 °C 1014.1 hPa NNW 11.1 km/h 24.5 km/h 93% 0 mm
08:34 16 °C 14.9 °C 1014.1 hPa NNW 8.7 km/h 19.5 km/h 93% 0 mm
08:39 16.1 °C 15 °C 1014.1 hPa NNW 8.7 km/h 20.9 km/h 93% 0 mm
08:44 16.1 °C 15 °C 1014.1 hPa NNW 11.1 km/h 23.3 km/h 93% 0 mm
08:49 16.1 °C 15 °C 1014.1 hPa NNW 9.7 km/h 28 km/h 93% 0 mm
08:54 16.1 °C 14.8 °C 1014.1 hPa North 12.2 km/h 28 km/h 92% 0 mm
08:59 16.1 °C 14.8 °C 1014.1 hPa North 9.7 km/h 20.9 km/h 92% 0 mm
09:04 16.2 °C 14.9 °C 1014.1 hPa NNW 9.7 km/h 20.9 km/h 92% 0 mm
09:09 16.3 °C 15 °C 1014.1 hPa North 13.4 km/h 19.5 km/h 92% 0 mm
09:14 16.3 °C 15 °C 1014.1 hPa North 12.2 km/h 19.5 km/h 92% 0 mm
09:20 17.2 °C 15.7 °C 1014.1 hPa North 11.1 km/h 19.5 km/h 91% 0 mm
09:24 17.3 °C 15.8 °C 1014.1 hPa North 8.7 km/h 23.3 km/h 91% 0 mm
09:29 17.3 °C 15.8 °C 1014.1 hPa North 13.4 km/h 23.3 km/h 91% 0 mm
09:34 17.3 °C 15.7 °C 1014.1 hPa North 6.1 km/h 21.9 km/h 90% 0 mm
09:40 17.3 °C 15.7 °C 1014.1 hPa NNE 13.4 km/h 21.9 km/h 90% 0 mm
09:44 17.3 °C 15.7 °C 1014.1 hPa NNE 11.1 km/h 21.9 km/h 90% 0 mm
09:49 17.3 °C 15.7 °C 1014.1 hPa North 12.2 km/h 23.3 km/h 90% 0 mm
09:54 17.3 °C 15.5 °C 1013.8 hPa North 11.1 km/h 23.3 km/h 89% 0 mm
09:59 17.3 °C 15.5 °C 1013.8 hPa North 9.7 km/h 23.3 km/h 89% 0 mm
10:04 17.3 °C 15.5 °C 1014.1 hPa North 12.2 km/h 23.3 km/h 89% 0 mm
10:09 17.4 °C 15.6 °C 1013.8 hPa North 6.1 km/h 24.5 km/h 89% 0 mm
10:14 17.4 °C 15.6 °C 1013.8 hPa North 6.1 km/h 24.5 km/h 89% 0 mm
10:19 17.4 °C 15.4 °C 1013.8 hPa NNE 12.2 km/h 24.5 km/h 88% 0 mm
10:24 17.5 °C 15.5 °C 1013.4 hPa North 17.2 km/h 24.5 km/h 88% 0 mm
10:29 17.5 °C 15.5 °C 1013.8 hPa North 13.4 km/h 27 km/h 88% 0 mm
10:34 17.5 °C 15.5 °C 1013.8 hPa NNW 13.4 km/h 27 km/h 88% 0 mm
10:39 17.5 °C 15.5 °C 1013.8 hPa North 17.2 km/h 28 km/h 88% 0 mm
10:44 17.5 °C 15.3 °C 1013.4 hPa North 14.8 km/h 29.5 km/h 87% 0 mm
10:49 17.5 °C 15.3 °C 1013.8 hPa NNW 12.2 km/h 29.5 km/h 87% 0 mm
10:54 17.6 °C 15.4 °C 1013.8 hPa NNW 15.8 km/h 29.5 km/h 87% 0 mm
10:59 17.5 °C 15.2 °C 1013.8 hPa North 18.3 km/h 29.5 km/h 86% 0 mm
11:04 17.6 °C 15.2 °C 1013.8 hPa North 13.4 km/h 29.5 km/h 86% 0 mm
11:09 17.7 °C 15.3 °C 1013.8 hPa NNW 12.2 km/h 25.6 km/h 86% 0 mm
11:14 17.9 °C 15.3 °C 1013.4 hPa NNW 17.2 km/h 28 km/h 85% 0 mm
11:19 18 °C 15.6 °C 1013.8 hPa North 15.8 km/h 31.7 km/h 86% 0 mm
11:24 17.9 °C 15.2 °C 1013.8 hPa NNW 6.1 km/h 31.7 km/h 84% 0 mm
11:29 18 °C 15.4 °C 1013.8 hPa NNW 9.7 km/h 28 km/h 85% 0 mm
11:34 17.9 °C 15.2 °C 1013.8 hPa North 13.4 km/h 34.3 km/h 84% 0 mm
11:40 17.8 °C 15.1 °C 1013.8 hPa North 11.1 km/h 34.3 km/h 84% 0 mm
11:44 17.7 °C 15.2 °C 1013.8 hPa North 15.8 km/h 28 km/h 85% 0 mm
11:49 17.6 °C 15.1 °C 1014.1 hPa NNW 15.8 km/h 29.5 km/h 85% 0 mm
11:54 17.6 °C 15.1 °C 1014.1 hPa NNW 17.2 km/h 30.6 km/h 85% 0 mm
11:59 17.6 °C 15.1 °C 1014.1 hPa NNW 24.5 km/h 31.7 km/h 85% 0 mm
12:04 17.6 °C 15.1 °C 1013.8 hPa NW 15.8 km/h 31.7 km/h 85% 0 mm
12:09 17.8 °C 15.3 °C 1013.8 hPa NNW 17.2 km/h 30.6 km/h 85% 0 mm
12:14 17.9 °C 15.2 °C 1013.8 hPa North 20.9 km/h 30.6 km/h 84% 0 mm
12:20 18 °C 15.3 °C 1013.8 hPa NNW 14.8 km/h 30.6 km/h 84% 0 mm
12:25 18.1 °C 15.4 °C 1013.8 hPa NNW 15.8 km/h 34.3 km/h 84% 0.25 mm
12:29 18.1 °C 15.2 °C 1013.8 hPa NW 18.3 km/h 34.3 km/h 83% 0.25 mm
12:34 18 °C 15.1 °C 1013.4 hPa NNW 20.9 km/h 33.2 km/h 83% 0.25 mm
12:40 17.9 °C 14.8 °C 1013.8 hPa North 25.6 km/h 33.2 km/h 82% 0.25 mm
12:44 17.7 °C 14.6 °C 1013.4 hPa North 17.2 km/h 31.7 km/h 82% 0.25 mm
12:50 17.6 °C 14.7 °C 1013.4 hPa North 12.2 km/h 31.7 km/h 83% 0.25 mm
12:55 17.6 °C 14.7 °C 1013.4 hPa NNW 12.2 km/h 29.5 km/h 83% 0.25 mm
12:59 17.6 °C 14.7 °C 1013.4 hPa North 17.2 km/h 29.5 km/h 83% 0.25 mm
13:04 17.6 °C 14.9 °C 1013.4 hPa North 9.7 km/h 27 km/h 84% 0.25 mm
13:09 17.6 °C 14.7 °C 1013.1 hPa NNW 13.4 km/h 28 km/h 83% 0.25 mm
13:14 17.5 °C 14.6 °C 1013.4 hPa NW 13.4 km/h 28 km/h 83% 0.25 mm
13:19 17.6 °C 14.9 °C 1013.1 hPa NNW 14.8 km/h 30.6 km/h 84% 0.25 mm
13:24 17.6 °C 14.7 °C 1013.1 hPa NNW 8.7 km/h 30.6 km/h 83% 0 mm
13:29 17.5 °C 14.6 °C 1013.1 hPa NNW 17.2 km/h 33.2 km/h 83% 0 mm
13:34 17.5 °C 14.6 °C 1013.1 hPa NNW 12.2 km/h 33.2 km/h 83% 0 mm
13:39 17.5 °C 14.8 °C 1013.1 hPa NNW 17.2 km/h 30.6 km/h 84% 0 mm
13:44 17.4 °C 14.7 °C 1012.8 hPa North 14.8 km/h 28 km/h 84% 0 mm
13:49 17.4 °C 14.7 °C 1012.8 hPa North 11.1 km/h 28 km/h 84% 0 mm
13:54 17.3 °C 14.8 °C 1013.1 hPa North 14.8 km/h 28 km/h 85% 0 mm
13:59 17.2 °C 14.8 °C 1012.8 hPa North 14.8 km/h 29.5 km/h 86% 0.25 mm
14:05 17.1 °C 14.9 °C 1012.8 hPa North 13.4 km/h 29.5 km/h 87% 0.51 mm
14:10 17.1 °C 15.1 °C 1012.8 hPa North 15.8 km/h 28 km/h 88% 0.51 mm
14:14 17 °C 15 °C 1012.8 hPa NNW 13.4 km/h 24.5 km/h 88% 0.51 mm
14:19 17 °C 15 °C 1012.8 hPa NNW 12.2 km/h 21.9 km/h 88% 0.51 mm
14:24 17 °C 15 °C 1012.8 hPa NNE 12.2 km/h 28 km/h 88% 0.51 mm
14:29 17 °C 15 °C 1012.4 hPa NNE 15.8 km/h 29.5 km/h 88% 1.02 mm
14:35 17 °C 15 °C 1012.4 hPa North 13.4 km/h 29.5 km/h 88% 1.02 mm
14:39 17 °C 15 °C 1012.4 hPa North 18.3 km/h 34.3 km/h 88% 1.02 mm
14:44 17 °C 15 °C 1012.4 hPa North 14.8 km/h 34.3 km/h 88% 1.02 mm
14:49 17 °C 15 °C 1012.4 hPa North 17.2 km/h 29.5 km/h 88% 1.02 mm
14:54 16.2 °C 14.4 °C 1012.1 hPa North 17.2 km/h 25.6 km/h 89% 1.02 mm
15:00 17 °C 15 °C 1012.1 hPa North 7.2 km/h 25.6 km/h 88% 0.51 mm
15:04 16.1 °C 14.3 °C 1012.1 hPa North 13.4 km/h 25.6 km/h 89% 0.25 mm
15:09 16.1 °C 14.3 °C 1012.1 hPa North 13.4 km/h 25.6 km/h 89% 0.51 mm
15:14 16.1 °C 14.3 °C 1011.7 hPa NNW 12.2 km/h 25.6 km/h 89% 0.51 mm
15:19 16.1 °C 14.3 °C 1011.7 hPa NNW 14.8 km/h 29.5 km/h 89% 0.51 mm
15:24 16 °C 14.4 °C 1011.7 hPa North 13.4 km/h 30.6 km/h 90% 0.25 mm
15:29 16 °C 14.4 °C 1011.7 hPa North 20.9 km/h 30.6 km/h 90% 0.25 mm
15:34 16 °C 14.4 °C 1011.7 hPa North 17.2 km/h 31.7 km/h 90% 0.51 mm
15:39 16 °C 14.4 °C 1011.7 hPa North 15.8 km/h 31.7 km/h 90% 0.51 mm
15:44 15.9 °C 14.4 °C 1011.4 hPa NNW 11.1 km/h 34.3 km/h 91% 1.02 mm
15:50 15.8 °C 14.3 °C 1011.4 hPa NNW 8.7 km/h 34.3 km/h 91% 1.27 mm
15:54 15.8 °C 14.5 °C 1011.4 hPa NNW 19.5 km/h 33.2 km/h 92% 1.52 mm
16:00 15.7 °C 14.4 °C 1011.1 hPa NNW 13.4 km/h 33.2 km/h 92% 2.03 mm
16:04 15.7 °C 14.4 °C 1011.1 hPa NNW 17.2 km/h 30.6 km/h 92% 2.29 mm
16:09 15.6 °C 14.3 °C 1011.1 hPa NNW 11.1 km/h 31.7 km/h 92% 2.79 mm
16:14 15.6 °C 14.3 °C 1011.1 hPa NNW 17.2 km/h 35.6 km/h 92% 3.3 mm
16:20 15.6 °C 14.5 °C 1011.1 hPa North 11.1 km/h 35.6 km/h 93% 3.81 mm
16:24 15.6 °C 14.5 °C 1010.7 hPa North 15.8 km/h 35.6 km/h 93% 4.32 mm
16:29 15.6 °C 14.5 °C 1010.7 hPa NNE 9.7 km/h 30.6 km/h 93% 4.57 mm
16:34 15.6 °C 14.5 °C 1010.7 hPa NNE 12.2 km/h 30.6 km/h 93% 4.32 mm
16:39 15.6 °C 14.5 °C 1010.7 hPa NNW 13.4 km/h 30.6 km/h 93% 4.32 mm
16:44 15.6 °C 14.5 °C 1010.7 hPa NNW 14.8 km/h 30.6 km/h 93% 3.81 mm
16:49 15.6 °C 14.7 °C 1010.7 hPa North 17.2 km/h 29.5 km/h 94% 3.56 mm
16:54 15.6 °C 14.7 °C 1010.7 hPa North 7.2 km/h 29.5 km/h 94% 3.56 mm
16:59 15.6 °C 14.7 °C 1010.7 hPa North 18.3 km/h 30.6 km/h 94% 3.3 mm
17:04 15.6 °C 14.7 °C 1010.4 hPa North 14.8 km/h 30.6 km/h 94% 3.3 mm
17:09 15.6 °C 14.7 °C 1010.4 hPa North 14.8 km/h 28 km/h 94% 3.05 mm
17:14 15.6 °C 14.7 °C 1010.4 hPa North 12.2 km/h 27 km/h 94% 3.05 mm
17:20 15.6 °C 14.7 °C 1010.4 hPa North 12.2 km/h 27 km/h 94% 2.29 mm
17:24 15.6 °C 14.7 °C 1010.4 hPa NNE 12.2 km/h 30.6 km/h 94% 2.29 mm
17:29 15.6 °C 14.7 °C 1010.4 hPa NNE 15.8 km/h 30.6 km/h 94% 2.29 mm
17:34 15.6 °C 14.7 °C 1010.4 hPa North 17.2 km/h 29.5 km/h 94% 2.29 mm
17:39 15.6 °C 14.7 °C 1010.4 hPa North 12.2 km/h 29.5 km/h 94% 2.29 mm
17:45 15.6 °C 14.7 °C 1010.4 hPa North 9.7 km/h 27 km/h 94% 2.79 mm
17:49 15.6 °C 14.7 °C 1010.4 hPa North 13.4 km/h 27 km/h 94% 3.05 mm
17:54 15.6 °C 14.7 °C 1010.4 hPa NNW 14.8 km/h 27 km/h 94% 2.79 mm
18:00 15.6 °C 14.8 °C 1010.4 hPa NW 14.8 km/h 25.6 km/h 95% 2.29 mm
18:04 15.6 °C 14.8 °C 1010.4 hPa NNW 13.4 km/h 25.6 km/h 95% 2.29 mm
18:09 15.6 °C 14.8 °C 1010.4 hPa NNW 12.2 km/h 25.6 km/h 95% 2.03 mm
18:14 15.6 °C 14.8 °C 1010.4 hPa NNW 13.4 km/h 23.3 km/h 95% 1.52 mm
18:19 15.6 °C 14.8 °C 1010 hPa North 19.5 km/h 30.6 km/h 95% 1.78 mm
18:24 15.7 °C 14.9 °C 1010 hPa North 17.2 km/h 30.6 km/h 95% 1.52 mm
18:29 15.7 °C 14.9 °C 1010 hPa North 12.2 km/h 25.6 km/h 95% 1.27 mm
18:34 15.7 °C 14.9 °C 1010.4 hPa NNW 14.8 km/h 28 km/h 95% 1.52 mm
18:40 15.2 °C 14.4 °C 1010.4 hPa NW 8.7 km/h 28 km/h 95% 1.78 mm
18:44 15.1 °C 14.3 °C 1010.4 hPa NW 11.1 km/h 20.9 km/h 95% 1.78 mm
18:49 14.9 °C 14.3 °C 1010.4 hPa West 6.1 km/h 20.9 km/h 96% 1.52 mm
18:54 14.9 °C 14.3 °C 1010.4 hPa West 7.2 km/h 20.9 km/h 96% 1.52 mm
18:59 14.9 °C 14.3 °C 1010.4 hPa West 5 km/h 15.8 km/h 96% 1.78 mm
19:05 14.4 °C 13.8 °C 1010.7 hPa West 3.5 km/h 13.4 km/h 96% 1.52 mm
19:09 14.4 °C 13.8 °C 1010.7 hPa WSW 6.1 km/h 11.1 km/h 96% 1.52 mm
19:15 14.4 °C 13.8 °C 1010.7 hPa SW 8.7 km/h 13.4 km/h 96% 1.52 mm
19:20 14.2 °C 13.4 °C 1011.1 hPa SW 3.5 km/h 13.4 km/h 95% 1.27 mm
19:25 13.9 °C 13.3 °C 1011.1 hPa WSW 3.5 km/h 12.2 km/h 96% 1.27 mm
19:29 13.8 °C 13.2 °C 1011.1 hPa West 5 km/h 12.2 km/h 96% 1.27 mm
19:34 13.6 °C 13 °C 1011.1 hPa SW 2.6 km/h 9.7 km/h 96% 1.02 mm
19:39 13.6 °C 13 °C 1011.1 hPa SW 2.6 km/h 9.7 km/h 96% 0.25 mm
19:44 13.4 °C 12.8 °C 1011.1 hPa West 6.1 km/h 15.8 km/h 96% 0.25 mm
19:50 13.3 °C 12.7 °C 1011.4 hPa West 2.6 km/h 15.8 km/h 96% 0.25 mm
19:54 13.2 °C 12.6 °C 1011.4 hPa SW 3.5 km/h 14.8 km/h 96% 0.25 mm
19:59 13 °C 12.4 °C 1011.7 hPa SW 6.1 km/h 15.8 km/h 96% 0 mm
20:04 12.8 °C 12.2 °C 1011.7 hPa SW 5 km/h 15.8 km/h 96% 0 mm
20:09 12.7 °C 12.1 °C 1011.7 hPa SW 3.5 km/h 12.2 km/h 96% 0 mm
20:15 12.6 °C 12 °C 1011.7 hPa WSW 3.5 km/h 8.7 km/h 96% 0 mm
20:20 12.5 °C 11.9 °C 1011.7 hPa WSW 7.2 km/h 12.2 km/h 96% 0 mm
20:24 12.3 °C 11.5 °C 1011.7 hPa WSW 6.1 km/h 12.2 km/h 95% 0 mm
20:29 12 °C 11.2 °C 1011.7 hPa West 12.2 km/h 17.2 km/h 95% 0 mm
20:34 11.9 °C 11.3 °C 1012.1 hPa West 6.1 km/h 17.2 km/h 96% 0 mm
20:40 11.8 °C 11.2 °C 1011.7 hPa West 6.1 km/h 17.2 km/h 96% 0 mm
20:44 11.6 °C 11 °C 1012.1 hPa WSW 7.2 km/h 18.3 km/h 96% 0 mm
20:50 11.5 °C 10.9 °C 1011.7 hPa West 5 km/h 18.3 km/h 96% 0 mm
20:55 11.4 °C 10.8 °C 1012.1 hPa WSW 6.1 km/h 15.8 km/h 96% 0 mm
20:59 11.4 °C 10.8 °C 1012.1 hPa SW 3.5 km/h 14.8 km/h 96% 0 mm
21:05 11.3 °C 10.6 °C 1012.4 hPa SSW 2.6 km/h 14.8 km/h 95% 0 mm
21:10 11.2 °C 10.4 °C 1012.4 hPa Calm   14.8 km/h 95% 0 mm
21:14 11.1 °C 10.3 °C 1012.4 hPa South 2.6 km/h 8.7 km/h 95% 0 mm
21:19 11.1 °C 10.3 °C 1012.4 hPa SW 1.1 km/h 6.1 km/h 95% 0 mm
21:24 11 °C 10.2 °C 1012.8 hPa SSW 2.6 km/h 6.1 km/h 95% 0 mm
21:29 11 °C 10.2 °C 1012.8 hPa SW 5 km/h 6.1 km/h 95% 0 mm
21:34 11 °C 10.2 °C 1012.8 hPa WSW 2.6 km/h 7.2 km/h 95% 0 mm
21:39 11 °C 10.1 °C 1012.8 hPa West 2.6 km/h 7.2 km/h 94% 0 mm
21:45 11.1 °C 10.2 °C 1013.1 hPa West 2.6 km/h 7.2 km/h 94% 0 mm
21:49 11.1 °C 10.2 °C 1013.1 hPa SW 1.1 km/h 6.1 km/h 94% 0 mm
21:54 11.2 °C 10.3 °C 1013.4 hPa SW 1.1 km/h 5 km/h 94% 0 mm
22:00 11.2 °C 10.3 °C 1013.4 hPa SW 1.1 km/h 5 km/h 94% 0 mm
22:05 11.4 °C 10.4 °C 1013.4 hPa Calm   7.2 km/h 94% 0 mm
22:10 11.5 °C 10.6 °C 1013.8 hPa Calm   7.2 km/h 94% 0 mm
22:14 11.6 °C 10.7 °C 1013.8 hPa Calm   3.5 km/h 94% 0 mm
22:19 11.6 °C 10.7 °C 1014.1 hPa West 2.6 km/h 5 km/h 94% 0 mm
22:24 11.6 °C 10.7 °C 1013.8 hPa WNW 2.6 km/h 6.1 km/h 94% 0 mm
22:29 11.6 °C 10.7 °C 1013.8 hPa NW 1.1 km/h 6.1 km/h 94% 0 mm
22:34 11.5 °C 10.6 °C 1013.8 hPa NNE 2.6 km/h 6.1 km/h 94% 0 mm
22:39 11.5 °C 10.6 °C 1013.8 hPa NE 3.5 km/h 8.7 km/h 94% 0 mm
22:45 11.4 °C 10.4 °C 1013.8 hPa NE 6.1 km/h 9.7 km/h 94% 0 mm
22:49 11.3 °C 10.2 °C 1013.8 hPa ENE 7.2 km/h 11.1 km/h 93% 0 mm
22:54 11.2 °C 10.1 °C 1014.1 hPa East 6.1 km/h 12.2 km/h 93% 0 mm
23:00 11.1 °C 10 °C 1013.8 hPa East 6.1 km/h 14.8 km/h 93% 0 mm
23:04 11.1 °C 10 °C 1013.8 hPa East 6.1 km/h 18.3 km/h 93% 0 mm
23:10 11 °C 9.9 °C 1014.1 hPa East 7.2 km/h 18.3 km/h 93% 0 mm
23:15 11 °C 9.8 °C 1014.1 hPa East 3.5 km/h 12.2 km/h 92% 0 mm
23:19 10.8 °C 9.7 °C 1014.1 hPa East 2.6 km/h 12.2 km/h 93% 0 mm
23:25 10.7 °C 9.6 °C 1014.4 hPa East 1.1 km/h 6.1 km/h 93% 0 mm
23:30 10.5 °C 9.3 °C 1014.4 hPa Calm   6.1 km/h 92% 0 mm
23:34 10.3 °C 9.1 °C 1014.4 hPa Calm   3.5 km/h 92% 0 mm
23:40 10.1 °C 8.9 °C 1014.4 hPa Calm     92% 0 mm
23:45 10 °C 8.8 °C 1014.8 hPa West 3.5 km/h 7.2 km/h 92% 0 mm
23:50 10.2 °C 8.9 °C 1014.8 hPa West 1.1 km/h 7.2 km/h 92% 0 mm
23:54 10.1 °C 8.9 °C 1014.4 hPa WNW 3.5 km/h 7.2 km/h 92% 0 mm
23:59 10.2 °C 8.9 °C 1014.4 hPa NW 1.1 km/h 6.1 km/h 92% 0 mm
Waitara, Taranaki. New Zealand Historic Data
Compliments of Weather Underground - 2 mb